This is the latest recevied weather packets stored in our database for station/object KD0ISH. If no packets are shown the sender has not sent any weather packets the latest 10 day(s).
| Time | Temp. | Humidity | Pressure | Rain* | Wind** | Luminosity | Snow |
|---|---|---|---|---|---|---|---|
| 1777987411 | 10.56° C | 88% | 1010.2 hPa | 0 mm | - | 75 W/m² | - |
| 1777987108 | 10.56° C | 88% | 1010.1 hPa | 0 mm | - | 56 W/m² | - |
| 1777986806 | 10.56° C | 89% | 1010.3 hPa | 0 mm | - | 56 W/m² | - |
| 1777986503 | 10.56° C | 89% | 1010.2 hPa | 0 mm | - | 62 W/m² | - |
| 1777986201 | 10.56° C | 89% | 1010.3 hPa | 0 mm | - | 42 W/m² | - |
| 1777985898 | 10.56° C | 89% | 1010.7 hPa | 0 mm | - | 42 W/m² | - |
| 1777985595 | 10.56° C | 89% | 1010 hPa | 0 mm | - | 43 W/m² | - |
| 1777985292 | 10.56° C | 89% | 1010 hPa | 0 mm | - | 49 W/m² | - |
| 1777984989 | 10.56° C | 89% | 1009.9 hPa | 0 mm | - | 52 W/m² | - |
| 1777984684 | 10.56° C | 89% | 1009.8 hPa | 0 mm | - | 47 W/m² | - |
| 1777984381 | 10.56° C | 89% | 1009.6 hPa | 0 mm | - | 49 W/m² | - |
| 1777984077 | 10.56° C | 90% | 1009.7 hPa | 0 mm | - | 39 W/m² | - |
| 1777983775 | 10.56° C | 90% | 1009.1 hPa | 0 mm | - | 38 W/m² | - |
| 1777983471 | 10.56° C | 92% | 1009.3 hPa | 0 mm | - | 26 W/m² | - |
| 1777983168 | 10.56° C | 92% | 1009.3 hPa | 0 mm | - | 23 W/m² | - |
| 1777982864 | 10.56° C | 92% | 1008.7 hPa | 0 mm | - | 13 W/m² | - |
| 1777982560 | 10.56° C | 92% | 1008.7 hPa | 0 mm | - | 14 W/m² | - |
| 1777982259 | 10.56° C | 93% | 1008.9 hPa | 0 mm | - | 9 W/m² | - |
| 1777981957 | 10.56° C | 93% | 1008.8 hPa | 0 mm | - | 5 W/m² | - |
| 1777981654 | 11.11° C | 93% | 1008.9 hPa | 0 mm | - | 3 W/m² | - |
| 1777981350 | 11.11° C | 93% | 1008.7 hPa | 0 mm | - | 2 W/m² | - |
| 1777981047 | 11.11° C | 93% | 1008.3 hPa | 0 mm | - | 3 W/m² | - |
| 1777980744 | 11.11° C | 93% | 1008.3 hPa | 0 mm | - | 2 W/m² | - |
| 1777980440 | 11.11° C | 93% | 1008.6 hPa | 0 mm | - | 1 W/m² | - |
| 1777980138 | 11.11° C | 92% | 1008.5 hPa | 0 mm | - | 0 W/m² | - |
* Rain latest hour (hover to see other rain measurements)
** Current wind speed in m/s (hover to see current wind gust speed)